SV4FFB-13 Weather Reports


Display with metric or nautical units.
time (UTC)temp
F
wind
direction
speed
MPH
gust
MPH
rain 1hr
in
rain 24hr
in
rain mn
in
humidity
%
barometer
mb
20260508002338 60 0.0 0.0 0.00 0.00 0.00 10 1020.5
20260508001337 59 0.0 0.0 0.00 0.00 0.00 10 1020.6
20260508000338 60 0.0 0.0 0.00 0.00 0.00 10 1020.8
20260507235338 59 0.0 0.0 0.00 0.00 0.00 10 1020.6
20260507234338 61 0.0 0.0 0.00 0.00 0.00 10 1020.4
20260507233338 61 0.0 0.0 0.00 0.00 0.00 10 1020.5
20260507232337 61 0.0 0.0 0.00 0.00 0.00 10 1020.8
20260507231338 61 0.0 0.0 0.00 0.00 0.00 10 1020.8
20260507230338 60 0.0 0.0 0.00 0.00 0.00 10 1021.2
20260507225337 60 0.0 0.0 0.00 0.00 0.00 10 1021.2
20260507224337 59 0.0 0.0 0.00 0.00 0.00 10 1021.3
20260507223338 59 0.0 0.0 0.00 0.00 0.00 10 1021.1
20260507222338 60 0.0 0.0 0.00 0.00 0.00 10 1021.0
20260507221337 60 0.0 0.0 0.00 0.00 0.00 10 1020.8
20260507220337 62 0.0 0.0 0.00 0.00 0.00 10 1020.5
20260507215337 61 0.0 0.0 0.00 0.00 0.00 10 1020.9
20260507214337 61 0.0 0.0 0.00 0.00 0.00 10 1020.6
20260507213337 62 0.0 0.0 0.00 0.00 0.00 10 1020.1
20260507212337 62 0.0 0.0 0.00 0.00 0.00 10 1020.4
20260507211337 61 0.0 0.0 0.00 0.00 0.00 10 1020.4
20260507210337 63 0.0 0.0 0.00 0.00 0.00 10 1020.5
20260507205338 62 0.0 0.0 0.00 0.00 0.00 10 1020.6
20260507204338 62 0.0 0.0 0.00 0.00 0.00 10 1021.0
20260507203337 62 0.0 0.0 0.00 0.00 0.00 10 1020.8
20260507202338 62 0.0 0.0 0.00 0.00 0.00 10 1021.1
20260507201337 61 0.0 0.0 0.00 0.00 0.00 10 1021.2
20260507200337 62 0.0 0.0 0.00 0.00 0.00 10 1020.6
20260507195337 63 0.0 0.0 0.00 0.00 0.00 10 1020.7
20260507194337 63 0.0 0.0 0.00 0.00 0.00 10 1020.8
20260507193337 63 0.0 0.0 0.00 0.00 0.00 10 1020.7
20260507192337 63 0.0 0.0 0.00 0.00 0.00 10 1020.8
20260507191337 63 0.0 0.0 0.00 0.00 0.00 10 1020.8
20260507190337 63 0.0 0.0 0.00 0.00 0.00 10 1021.0
20260507185337 63 0.0 0.0 0.00 0.00 0.00 10 1020.9
20260507184338 63 0.0 0.0 0.00 0.00 0.00 10 1020.9
20260507183337 62 0.0 0.0 0.00 0.00 0.00 10 1020.9
20260507182337 61 0.0 0.0 0.00 0.00 0.00 10 1020.8
20260507181337 62 0.0 0.0 0.00 0.00 0.00 10 1020.4
20260507180337 64 0.0 0.0 0.00 0.00 0.00 10 1020.1
20260507175337 64 0.0 0.0 0.00 0.00 0.00 10 1020.0
20260507174339 64 0.0 0.0 0.00 0.00 0.00 10 1019.7
20260507173338 64 0.0 0.0 0.00 0.00 0.00 10 1019.5
20260507172337 65 0.0 0.0 0.00 0.00 0.00 10 1019.4
20260507171337 65 0.0 0.0 0.00 0.00 0.00 10 1019.4
20260507170337 66 0.0 0.0 0.00 0.00 0.00 10 1019.1
20260507165338 67 0.0 0.0 0.00 0.00 0.00 10 1019.0
20260507164337 67 0.0 0.0 0.00 0.00 0.00 10 1019.0
20260507163338 68 0.0 0.0 0.00 0.00 0.00 10 1018.9
20260507162336 68 0.0 0.0 0.00 0.00 0.00 10 1018.7
20260507161338 68 0.0 0.0 0.00 0.00 0.00 10 1018.4
20260507160336 69 0.0 0.0 0.00 0.00 0.00 10 1018.2
20260507155336 71 0.0 0.0 0.00 0.00 0.00 10 1017.9
20260507154336 72 0.0 0.0 0.00 0.00 0.00 10 1017.9
20260507153336 72 0.0 0.0 0.00 0.00 0.00 10 1017.9
20260507152336 74 0.0 0.0 0.00 0.00 0.00 10 1017.3
20260507151337 73 0.0 0.0 0.00 0.00 0.00 10 1017.7
20260507150336 78 0.0 0.0 0.00 0.00 0.00 10 1017.1
20260507145337 77 0.0 0.0 0.00 0.00 0.00 10 1017.4
20260507144336 77 0.0 0.0 0.00 0.00 0.00 10 1017.7
20260507143336 78 0.0 0.0 0.00 0.00 0.00 10 1017.3
20260507142336 76 0.0 0.0 0.00 0.00 0.00 10 1017.7
20260507141336 81 0.0 0.0 0.00 0.00 0.00 10 1017.2
20260507140336 82 0.0 0.0 0.00 0.00 0.00 10 1017.0
20260507135336 80 0.0 0.0 0.00 0.00 0.00 10 1017.3
20260507134336 78 0.0 0.0 0.00 0.00 0.00 10 1017.6
20260507133336 80 0.0 0.0 0.00 0.00 0.00 10 1017.3
20260507132336 85 0.0 0.0 0.00 0.00 0.00 10 1017.0
20260507131337 84 0.0 0.0 0.00 0.00 0.00 10 1016.9
20260507130336 84 0.0 0.0 0.00 0.00 0.00 10 1017.3
20260507125336 79 0.0 0.0 0.00 0.00 0.00 10 1017.7
20260507124336 76 0.0 0.0 0.00 0.00 0.00 10 1018.1
20260507123336 78 0.0 0.0 0.00 0.00 0.00 10 1017.9
20260507122336 79 0.0 0.0 0.00 0.00 0.00 10 1017.9
20260507121336 75 0.0 0.0 0.00 0.00 0.00 10 1018.3
20260507120336 74 0.0 0.0 0.00 0.00 0.00 10 1018.5
20260507115336 79 0.0 0.0 0.00 0.00 0.00 10 1018.2
20260507114336 76 0.0 0.0 0.00 0.00 0.00 10 1018.6
20260507113336 74 0.0 0.0 0.00 0.00 0.00 10 1018.9
20260507112336 74 0.0 0.0 0.00 0.00 0.00 10 1019.0
20260507111338 76 0.0 0.0 0.00 0.00 0.00 10 1018.8
20260507110336 76 0.0 0.0 0.00 0.00 0.00 10 1018.6
20260507105336 76 0.0 0.0 0.00 0.00 0.00 10 1018.6
20260507104336 72 0.0 0.0 0.00 0.00 0.00 10 1019.0
20260507103336 72 0.0 0.0 0.00 0.00 0.00 10 1018.9
20260507102336 72 0.0 0.0 0.00 0.00 0.00 10 1018.8
20260507101336 71 0.0 0.0 0.00 0.00 0.00 10 1018.8
20260507100336 71 0.0 0.0 0.00 0.00 0.00 10 1018.9
20260507095336 70 0.0 0.0 0.00 0.00 0.00 10 1018.9
20260507094336 71 0.0 0.0 0.00 0.00 0.00 10 1018.9
20260507093336 73 0.0 0.0 0.00 0.00 0.00 10 1018.6
20260507092336 73 0.0 0.0 0.00 0.00 0.00 10 1018.7
20260507091336 74 0.0 0.0 0.00 0.00 0.00 10 1018.5
20260507090336 74 0.0 0.0 0.00 0.00 0.00 10 1018.4
20260507085336 75 0.0 0.0 0.00 0.00 0.00 10 1018.3
20260507084336 73 0.0 0.0 0.00 0.00 0.00 10 1018.6
20260507083336 72 0.0 0.0 0.00 0.00 0.00 10 1018.9
20260507082336 71 0.0 0.0 0.00 0.00 0.00 10 1018.8
20260507081337 71 0.0 0.0 0.00 0.00 0.00 10 1018.9
20260507080336 72 0.0 0.0 0.00 0.00 0.00 10 1018.5
20260507075336 71 0.0 0.0 0.00 0.00 0.00 10 1018.5
20260507074336 71 0.0 0.0 0.00 0.00 0.00 10 1018.7
20260507073336 71 0.0 0.0 0.00 0.00 0.00 10 1018.5
20260507072336 68 0.0 0.0 0.00 0.00 0.00 10 1018.9
20260507071336 68 0.0 0.0 0.00 0.00 0.00 10 1018.9
20260507070336 68 0.0 0.0 0.00 0.00 0.00 10 1018.9
20260507065336 68 0.0 0.0 0.00 0.00 0.00 10 1019.0
20260507064336 68 0.0 0.0 0.00 0.00 0.00 10 1019.2
20260507063336 69 0.0 0.0 0.00 0.00 0.00 10 1019.0
20260507062337 68 0.0 0.0 0.00 0.00 0.00 10 1018.8
20260507061336 68 0.0 0.0 0.00 0.00 0.00 10 1018.7
20260507060336 67 0.0 0.0 0.00 0.00 0.00 10 1018.7
20260507055336 66 0.0 0.0 0.00 0.00 0.00 10 1018.5
20260507054336 66 0.0 0.0 0.00 0.00 0.00 10 1018.5
20260507053336 65 0.0 0.0 0.00 0.00 0.00 10 1019.4
20260507052336 63 0.0 0.0 0.00 0.00 0.00 10 1019.5
20260507051336 62 0.0 0.0 0.00 0.00 0.00 10 1019.3
20260507050336 62 0.0 0.0 0.00 0.00 0.00 10 1019.2
20260507045336 60 0.0 0.0 0.00 0.00 0.00 10 1019.2
20260507044337 59 0.0 0.0 0.00 0.00 0.00 10 1019.3
20260507043336 59 0.0 0.0 0.00 0.00 0.00 10 1018.9
20260507042336 58 0.0 0.0 0.00 0.00 0.00 10 1019.1
20260507041336 57 0.0 0.0 0.00 0.00 0.00 10 1019.3
20260507040336 56 0.0 0.0 0.00 0.00 0.00 10 1019.2
20260507035336 56 0.0 0.0 0.00 0.00 0.00 10 1019.3
20260507034336 56 0.0 0.0 0.00 0.00 0.00 10 1019.3
20260507033337 55 0.0 0.0 0.00 0.00 0.00 10 1019.3
20260507032336 55 0.0 0.0 0.00 0.00 0.00 10 1019.1
20260507031337 54 0.0 0.0 0.00 0.00 0.00 10 1019.0
20260507030336 55 0.0 0.0 0.00 0.00 0.00 10 1018.8
20260507025337 55 0.0 0.0 0.00 0.00 0.00 10 1018.7
20260507024336 55 0.0 0.0 0.00 0.00 0.00 10 1018.6
20260507023336 55 0.0 0.0 0.00 0.00 0.00 10 1018.4
20260507022337 55 0.0 0.0 0.00 0.00 0.00 10 1018.1
20260507021336 57 0.0 0.0 0.00 0.00 0.00 10 1017.7
20260507020337 56 0.0 0.0 0.00 0.00 0.00 10 1017.9
20260507015336 56 0.0 0.0 0.00 0.00 0.00 10 1017.8
20260507014337 57 0.0 0.0 0.00 0.00 0.00 10 1017.4
20260507013337 58 0.0 0.0 0.00 0.00 0.00 10 1017.3
20260507012337 56 0.0 0.0 0.00 0.00 0.00 10 1017.5
20260507011337 57 0.0 0.0 0.00 0.00 0.00 10 1017.4
20260507010338 57 0.0 0.0 0.00 0.00 0.00 10 1017.2
20260507005337 57 0.0 0.0 0.00 0.00 0.00 10 1017.1
20260507004336 57 0.0 0.0 0.00 0.00 0.00 10 1017.0
20260507003338 59 0.0 0.0 0.00 0.00 0.00 10 1017.0